Regional Weather Roundup
Issued by NWS Bismarck, ND

Home | Current Version | Previous Version | Text Only | Print | Product List | Glossary On
Versions: 1 2 3 4 5 6 7 8 9 10 11 12 13 14 15 16 17 18 19 20 21 22 23 24 25 26 27 28 29 30 31 32 33 34 35 36 37 38 39 40 41 42 43 44 45 46 47 48 49 50
000
ASUS43 KBIS 231101
RWRBIS

NWR BROADCAST TEXT
NATIONAL WEATHER SERVICE BISMARCK ND
600 AM CDT SAT MAY 23 2015

NOTE: "FAIR" INDICATES FEW OR NO CLOUDS BELOW 12,000 FEET WITH NO
SIGNIFICANT WEATHER AND/OR OBSTRUCTIONS TO VISIBILITY.


CITY           SKY/WX    TMP DP  RH WIND       PRES   REMARKS
WILLISTON      CLEAR     40  35  83 N5        30.11S
MINOT          PTCLDY    50  38  63 CALM      30.12R
MINOT AFB      PTCLDY    49  42  77 CALM      30.11R
BISMARCK       CLEAR     45  42  89 SE9       30.17R
DICKINSON      PTCLDY    40  36  86 SE9       30.10R
GARRISON         N/A     45  41  86 CALM      30.14R
HETTINGER ARPT MOCLDY    41  38  89 E8        30.12R
JAMESTOWN      PTCLDY    50  43  77 SW7       30.17R
CARRINGTON     FAIR      50  46  87 W7        30.16R
STANLEY        FAIR      43  43 100 CALM      30.14S
$$

CITY           SKY/WX    TMP DP  RH WIND       PRES   REMARKS
GRAND FORKS    PTCLDY    47  40  76 SE6       30.13S
GRAND FORKS AF CLEAR     44  38  82 S2        30.13S
DEVILS LAKE    CLEAR     48  37  66 CALM      30.13R
FARGO          CLEAR     50  44  80 S8        30.18R
CAVALIER       FAIR      48  39  71 SW6       30.12S
GRAFTON        FAIR      46  45  93 S5        30.14S
LANGDON        FAIR      45  36  70 S10       30.14S
ROLLA          FAIR      50  37  62 W10       30.13S
$$

CITY           SKY/WX    TMP DP  RH WIND       PRES   REMARKS
ABERDEEN       CLOUDY    46  43  89 CALM      30.20R
MOBRIDGE       CLOUDY    48  44  86 E10       30.14R
RAPID CITY     CLOUDY    47  44  90 SE8       30.05F
GLASGOW        CLOUDY    54  41  61 E13       30.04R
SIDNEY         PTCLDY    46  37  71 N3        30.10S
WOLF POINT     MOCLDY    49  40  71 NE7       30.07S
GLENDIVE       CLEAR     43  37  81 E6        30.08S
MILES CITY     PTCLDY    49  40  71 E3        30.01R
BAKER          PTCLDY    40  37  89 E8        30.07R
$$

CITY           SKY/WX    TMP DP  RH WIND       PRES   REMARKS
BILLINGS       CLOUDY    51  45  79 NE7       29.96S
GREAT FALLS    CLOUDY    49  44  83 NW3       30.02R
$$




USA.gov is the U.S. government's official web portal to all federal, state and local government web resources and services.